Theta_e
325 326 328 328 328 325 328 330 332 326 321 321 325 325 322 322 325 325 324 325 325 325 314 322 328 330 331 330 332 332 333 333 333 334 334 335 334 334 333 333 332 332 332 332
327 327 323 325 325 326 329 330 330 327 323 323 321 324 320 320 321 321 323 321 322 312 309 311 316 320 323 321 323 324 323 323 325 328 330 330 330 328 327 324 322 324 325 325
327 324 321 326 326 326 329 331 330 329 324 321 323 324 321 319 319 317 318 317 314 309 309 308 309 311 312 314 315 315 316 317 317 318 318 319 320 321 320 319 319 319 319 318
324 321 323 325 328 327 330 327 327 327 327 334 326 337 328 320 319 317 315 311 308 308 307 307 308 309 310 311 312 312 313 313 313 314 315 316 316 316 314 314 314 315 316 317
324 323 324 327 324 324 327 325 326 326 326 327 327 332 329 319 320 319 318 310 307 307 307 307 309 309 309 310 311 310 310 310 311 311 311 312 312 311 311 310 310 310 310 313
320 318 322 324 322 323 323 324 324 324 323 329 326 328 328 324 320 318 311 310 308 308 307 308 308 309 309 309 309 309 309 308 309 309 308 308 307 306 306 305 305 304 304 304
317 321 318 321 325 322 322 324 323 326 326 329 323 324 325 322 321 315 312 310 310 309 308 307 306 307 308 308 308 308 308 307 306 306 305 305 304 304 304 303 303 303 302 302
321 321 321 319 324 325 323 322 324 328 326 319 317 326 324 317 316 314 312 311 310 308 307 306 306 306 306 306 307 306 306 305 305 305 304 304 303 303 302 301 301 300 300 299
321 322 317 316 319 322 323 321 315 314 311 316 316 312 308 308 308 312 312 311 309 307 306 305 306 306 306 306 305 305 305 304 304 303 302 302 301 301 300 299 299 298 298 297
318 320 318 316 319 317 320 316 318 316 321 321 312 311 311 310 310 310 310 308 306 306 305 304 304 305 305 305 304 304 303 302 301 300 300 299 298 297 296 296 296 296 296 296
315 318 318 318 321 319 319 318 314 314 314 315 315 312 306 309 309 310 310 308 308 306 305 303 304 305 305 303 302 300 300 299 299 298 297 297 296 296 295 295 295 295 294 294
313 316 320 318 312 312 314 318 313 318 315 313 314 311 306 306 306 307 306 307 306 305 304 303 304 304 302 300 298 297 297 298 297 296 296 295 295 295 295 294 293 293 294 293
313 315 318 318 316 314 316 314 312 311 311 314 315 311 305 305 305 305 305 306 306 305 304 303 302 301 299 297 296 296 296 295 295 295 295 294 294 293 293 293 292 292 291 291
311 312 313 317 316 315 315 314 312 312 310 312 310 310 308 307 306 306 306 306 305 305 305 302 300 298 297 296 295 294 294 294 294 294 294 293 292 291 290 290 289 289 288 288
309 312 309 307 309 314 313 314 313 313 311 313 311 310 308 307 307 307 306 305 305 305 304 302 298 295 295 294 293 293 293 293 293 293 292 290 289 288 288 288 287 287 286 286
306 307 305 305 304 309 310 312 312 312 311 312 309 311 306 307 307 307 307 306 305 304 304 300 297 295 293 292 292 291 291 291 291 290 289 288 287 287 286 286 285 284 284 284
306 303 298 302 300 309 309 310 312 311 311 311 312 311 308 309 308 307 306 305 304 304 301 298 295 293 291 291 291 291 290 289 289 288 287 286 285 284 283 283 282 282 282 282
304 300 296 300 293 311 305 297 307 310 310 310 310 309 308 307 303 300 299 303 302 299 296 294 292 291 291 290 290 289 289 288 287 286 284 283 283 282 282 282 281 281 281 280
300 301 293 300 288 297 300 300 306 310 309 304 308 306 304 302 301 300 297 298 297 295 293 293 292 291 290 289 288 288 287 286 285 284 283 282 281 281 280 280 279 279 279 279
298 297 299 284 293 295 299 302 302 300 299 301 302 303 302 301 304 301 296 294 292 292 292 291 290 289 288 288 288 287 286 285 283 282 281 280 279 279 278 278 278 278 278 277
299 293 292 289 287 292 293 298 298 298 300 300 300 300 301 301 298 296 293 292 291 290 289 289 288 288 288 288 286 285 283 282 281 280 279 279 278 278 277 277 277 277 277 277
299 298 287 287 286 293 293 299 300 298 297 297 298 299 300 296 294 293 292 289 289 288 288 288 288 287 286 285 284 283 283 282 280 279 279 278 277 277 277 277 276 276 276 276
296 294 295 295 295 293 294 297 297 296 296 296 296 297 296 295 293 292 291 289 289 289 288 287 287 286 286 285 284 283 281 280 279 279 278 278 277 277 276 276 276 276 275 274
296 294 296 295 294 294 294 296 297 297 297 295 294 293 292 294 292 291 290 289 289 289 288 287 286 285 285 284 282 282 280 279 279 278 278 277 276 276 275 275 275 274 273 273
293 295 296 295 296 296 295 293 294 295 296 295 294 292 292 291 291 290 289 289 290 289 288 287 286 286 286 284 282 281 280 279 278 278 277 276 275 274 274 274 274 273 273 273
293 295 296 295 295 295 294 294 292 293 294 292 293 293 292 291 290 290 289 291 290 289 288 287 287 286 285 284 282 280 279 278 277 277 275 274 274 274 273 273 273 273 273 272
Wind_Speed
4 4 9 13 12 1 7 7 7 2 1 1 4 3 3 3 4 7 7 7 7 7 4 4 9 14 15 14 17 15 14 15 15 16 18 18 19 18 15 13 13 13 13 16
4 9 6 9 7 3 10 11 9 3 3 3 1 3 1 2 5 6 9 8 8 6 5 11 13 12 11 10 9 8 6 5 4 7 9 8 7 4 2 3 5 6 6 7
5 6 9 9 9 9 5 16 10 6 3 2 3 2 1 2 1 3 4 6 6 9 8 7 13 13 13 12 10 9 7 4 2 1 2 1 2 1 2 5 6 7 8 8
4 3 11 10 9 9 8 4 8 7 6 10 2 7 4 2 4 5 6 9 9 8 5 7 10 11 10 10 9 8 7 5 4 4 3 3 4 3 5 7 8 9 9 9
6 10 14 13 7 7 3 13 8 4 4 3 2 4 4 3 6 5 5 7 8 8 6 7 11 11 10 9 13 11 10 12 11 10 10 9 8 7 7 8 8 8 9 9
2 7 7 3 10 4 10 9 9 5 3 2 4 3 3 8 6 3 1 6 6 8 9 10 10 15 14 11 15 13 12 16 14 12 12 12 11 10 9 11 11 12 11 11
3 13 4 5 12 12 12 10 3 2 3 1 6 3 4 5 3 3 8 9 5 7 8 8 9 11 16 11 14 13 13 15 13 13 12 12 12 11 11 12 13 13 14 16
5 4 10 5 9 9 17 4 4 4 4 3 4 4 4 6 3 3 6 7 4 10 7 9 13 10 10 11 13 12 13 13 11 11 11 11 10 10 11 11 11 12 14 15
4 2 1 1 4 12 5 3 1 5 2 3 4 4 2 5 5 8 10 9 10 5 7 7 11 10 8 10 12 11 12 13 12 12 10 11 11 12 13 12 11 13 13 14
3 5 2 1 7 4 3 4 4 2 3 1 2 3 3 4 10 11 13 10 8 6 8 7 10 11 10 10 11 12 13 14 12 12 12 14 14 14 13 12 14 15 15 15
7 2 2 2 1 7 5 2 1 4 2 4 4 4 1 4 7 13 10 10 11 9 8 7 11 11 12 12 13 14 14 14 14 13 12 13 13 13 11 12 14 15 16 18
1 4 4 3 1 0 0 6 4 3 3 2 1 1 2 4 4 6 6 7 6 8 8 8 13 15 14 14 14 15 14 14 13 11 10 11 11 11 12 14 16 17 19 19
4 2 4 4 4 3 3 3 4 5 3 1 3 3 3 4 5 6 9 8 7 6 7 7 12 14 15 14 14 14 14 13 10 8 7 9 11 12 14 16 17 18 18 19
5 4 1 6 4 6 5 5 4 5 4 4 3 3 0 4 7 7 6 8 8 8 8 6 8 13 15 13 12 12 12 9 7 6 8 10 12 14 15 16 16 16 17 17
4 3 3 4 5 3 5 10 8 5 5 5 5 7 6 5 7 6 7 7 8 7 7 6 7 13 15 14 11 9 8 7 6 7 8 11 11 12 12 14 15 16 16 16
2 3 2 6 9 6 4 5 7 5 4 5 5 3 5 5 6 4 5 6 7 7 6 7 11 14 14 12 9 7 6 6 5 6 9 10 11 12 13 13 13 14 15 16
4 6 3 2 5 5 4 6 5 4 3 7 5 4 6 3 3 2 4 5 7 6 8 9 11 14 13 10 6 5 3 3 5 7 8 9 10 11 11 12 14 15 17 17
5 5 3 3 2 2 4 3 1 5 5 3 4 5 5 4 5 4 2 2 3 6 8 10 16 15 11 7 4 2 2 2 3 4 6 8 9 10 11 12 14 15 16 16
4 5 4 4 3 3 2 4 6 6 6 4 5 4 2 2 4 2 3 2 4 6 12 16 16 12 10 6 2 1 1 2 3 5 7 8 8 9 10 12 14 15 17 17
5 7 4 3 6 5 4 2 3 3 3 6 6 6 6 6 3 3 4 4 9 15 16 17 13 11 7 3 2 3 3 4 4 5 6 7 7 9 10 12 13 14 15 16
4 4 4 3 2 6 5 3 1 6 5 5 6 6 7 4 3 3 7 5 12 14 14 14 11 8 6 4 5 7 7 8 6 5 6 7 7 8 9 11 12 14 15 16
3 4 2 2 4 3 5 3 7 3 3 6 4 3 4 4 5 6 6 7 11 12 12 10 10 9 8 8 8 10 10 6 4 5 6 6 7 9 10 11 11 12 14 17
2 3 3 4 4 1 1 2 2 2 5 4 6 3 5 5 5 7 6 8 13 14 13 12 11 10 10 10 10 8 6 5 5 6 6 7 8 8 9 11 13 14 15 16
2 1 1 4 0 4 4 1 2 2 4 5 4 6 7 6 6 7 5 8 13 14 14 13 13 14 13 10 10 8 7 6 6 6 7 7 8 8 8 10 11 12 13 15
3 3 3 4 6 4 6 7 6 5 3 4 4 6 7 7 6 7 6 11 14 14 15 15 15 14 13 11 10 8 8 8 8 8 7 7 8 9 9 10 11 12 10 10
5 7 5 5 6 4 2 1 6 6 6 7 6 4 5 10 8 8 9 13 14 15 14 15 16 16 12 11 12 11 10 10 9 8 8 8 8 9 10 12 14 9 7 10
Wind_Direction
198 179 194 188 194 219 191 198 213 146 50 190 198 198 259 199 168 172 192 181 189 205 51 148 208 221 224 224 226 229 234 237 242 249 253 258 263 270 276 281 288 291 292 292
172 216 191 163 158 136 164 189 201 123 332 153 233 191 208 190 222 198 190 180 169 123 78 90 116 126 141 137 145 162 168 185 209 235 248 259 273 294 323 333 342 342 331 320
181 169 153 151 167 160 187 189 177 193 162 64 118 298 150 219 147 125 125 129 125 141 129 104 102 104 114 111 109 113 111 110 119 241 249 307 355 15 29 7 8 11 3 356
213 168 158 154 177 167 190 158 133 136 179 210 142 238 252 160 230 152 119 111 117 118 101 100 101 92 97 99 101 105 106 95 65 43 25 43 62 53 33 26 21 15 10 7
166 169 163 162 165 152 157 133 105 79 89 131 155 196 187 131 230 181 157 118 123 126 126 120 108 94 82 94 99 84 86 85 69 65 67 72 73 61 48 37 32 25 19 17
233 165 153 151 141 123 118 104 64 51 75 222 177 181 230 187 170 109 350 107 128 129 113 82 95 109 93 85 90 91 84 75 74 68 66 64 64 59 54 41 31 24 21 15
313 163 119 137 133 135 121 121 131 152 183 220 151 134 248 272 237 67 181 110 174 132 122 112 94 89 96 109 96 93 84 78 72 67 63 58 54 47 43 34 23 15 11 8
173 155 173 171 175 167 159 171 144 155 170 142 167 206 245 207 276 176 108 138 143 135 137 120 116 119 120 104 100 98 90 83 74 70 64 56 50 47 45 37 31 25 18 10
152 155 101 237 129 153 156 143 53 106 42 99 186 255 165 129 156 163 167 187 156 114 102 121 134 133 114 109 96 97 93 84 74 68 65 60 55 48 48 42 36 32 21 11
158 109 57 222 104 30 156 137 111 8 125 188 280 280 208 159 156 161 156 155 158 144 124 126 142 143 129 114 111 102 90 82 78 75 70 66 63 57 49 39 31 24 13 3
178 133 123 220 227 143 137 191 123 115 147 156 140 245 320 177 182 164 161 163 154 143 140 150 148 136 128 119 109 101 96 90 81 76 73 68 59 50 36 26 16 8 359 354
67 118 113 84 3 183 267 160 151 119 226 34 115 221 347 287 218 158 151 147 139 145 147 147 148 140 129 121 115 100 93 87 82 78 69 60 46 30 17 9 3 355 350 347
197 86 103 56 28 343 151 140 125 108 70 170 120 245 355 61 128 166 156 157 155 151 155 144 146 142 132 122 108 97 91 88 90 87 67 46 27 12 4 357 354 351 348 349
102 79 9 179 155 135 156 139 133 106 106 176 193 152 314 50 110 121 133 153 160 173 189 144 128 133 134 127 114 100 94 93 88 68 40 23 12 5 360 356 354 353 354 351
94 119 88 23 23 89 137 159 155 145 152 160 192 163 181 149 125 136 140 146 170 189 180 147 137 138 136 124 114 104 95 83 64 38 20 14 6 2 359 356 358 356 356 356
55 139 107 26 6 55 79 128 127 115 127 79 115 113 159 152 105 117 161 182 204 200 175 142 139 139 137 131 121 104 78 57 33 21 17 8 4 2 1 357 356 355 359 1
90 128 89 300 347 57 4 211 154 142 166 140 158 203 144 169 147 174 162 182 213 204 154 147 139 135 133 125 112 92 64 44 14 12 7 2 0 360 360 357 358 0 3 1
117 89 70 152 11 159 250 328 220 133 178 164 99 133 152 156 126 96 24 279 136 130 127 122 132 137 134 125 113 90 31 2 359 1 357 356 356 355 351 354 357 357 358 1
33 113 83 129 145 282 2 175 154 158 225 189 172 163 211 89 92 37 20 91 132 120 124 136 143 143 146 149 152 189 267 320 327 336 338 340 340 341 347 353 356 359 357 1
42 50 103 70 112 179 237 149 167 114 309 172 170 151 145 144 135 251 148 98 103 126 137 141 147 152 161 165 188 226 243 256 286 304 313 323 332 342 352 351 354 357 357 357
18 12 104 94 106 289 239 204 188 98 232 140 132 134 138 158 178 139 131 115 141 143 147 154 161 171 181 196 207 219 225 242 262 296 318 329 340 344 345 352 355 351 354 353
145 128 145 109 76 289 162 75 162 203 85 128 116 112 108 111 115 138 151 149 156 156 160 173 177 189 200 207 210 223 233 255 280 314 323 338 341 346 348 347 347 355 354 356
49 160 182 198 200 313 295 6 345 130 132 150 128 136 130 139 188 175 178 172 181 186 192 197 202 206 217 221 222 236 255 262 294 326 333 331 335 339 337 339 345 352 357 1
310 204 100 54 216 233 233 230 221 181 137 148 148 166 167 182 199 202 183 186 194 197 202 206 209 218 227 229 234 249 258 282 303 313 310 317 324 331 333 344 346 346 352 353
205 126 162 280 269 270 237 212 203 208 191 167 169 175 198 192 211 199 201 203 208 210 213 214 219 231 240 234 243 260 274 282 288 293 303 313 316 322 331 340 347 339 344 343
186 186 167 216 222 158 207 106 178 195 217 223 194 200 205 201 215 202 217 216 215 216 218 223 233 241 248 250 259 259 263 271 274 286 297 304 310 318 326 332 333 346 332 328